Regional Weather Roundup
Issued by NWS

Home | Current Version | Previous Version | Graphics & Text | Print | Product List | Glossary On
Versions: 1 2 3 4 5 6 7 8 9 10 11 12 13 14 15 16 17 18 19 20 21 22 23 24 25 26 27 28 29 30 31 32 33 34 35 36 37 38 39 40 41 42 43 44 45 46 47 48 49 50
000
ASUS43 KMPX 031210
RWRMN
WEATHER ROUNDUP FOR MINNESOTA
NATIONAL WEATHER SERVICE TWIN CITIES/CHANHASSEN MN
700 AM CDT THU SEP 03 2015


NOTE: "FAIR" INDICATES FEW OR NO CLOUDS BELOW 12,000 FEET WITH NO
SIGNIFICANT WEATHER AND/OR OBSTRUCTIONS TO VISIBILITY. N/A MEANS
CURRENT SKY AND/OR WEATHER CONDITIONS ARE NOT AVAILABLE.

MNZ060>063-068>070-031300-
   Twin Cities Metro

CITY           SKY/WX    TMP DP  RH WIND       PRES   REMARKS
TWIN CITIES    CLOUDY    68  67  96 E8        29.91R FOG
6HR MIN TEMP:  67; 6HR MAX TEMP:  69;

ST PAUL        CLOUDY    68  67  96 SE6       29.91R
CRYSTAL        CLOUDY    69  66  90 E3        29.90R
BLAINE         PTCLDY    68  66  94 E5        29.91S FOG
LAKEVILLE      FOG       66  66 100 E3        29.91R VSB<1/4
EDEN PRAIRIE   FOG       68  67  96 E5        29.90R VSB 1/8
6HR MIN TEMP:  68; 6HR MAX TEMP:  71;

SOUTH ST PAUL  CLOUDY    68  66  93 CALM      29.91R
LAKE ELMO      FAIR      64  63  94 CALM      29.93R FOG
$$
MNZ001>005-007-008-013>017-022>024-027-028-031300-
   Northwest Minnesota

CITY           SKY/WX    TMP DP  RH WIND       PRES   REMARKS
BEMIDJI        CLOUDY    65  64  99 SE10      29.91R FOG
HALLOCK        CLOUDY    70  66  88 SE13      29.79R
ROSEAU         PTCLDY    66  63  88 SE9       29.85R
WARROAD        CLEAR     64  61  88 SE10      29.87R
THIEF RVR FALL CLOUDY    70  68  94 E12       29.83S
CROOKSTON      CLOUDY    72  70  94 S15       29.81S
FOSSTON        CLEAR     66  64  94 SE9       29.86S
DETROIT LAKES  CLOUDY    70  64  83 SE17      29.87S
MOORHEAD       MOCLDY    72  68  88 SE9       29.81S
PARK RAPIDS    CLOUDY    68  64  87 SE8       29.91R
MAHNOMEN       FAIR      69  66  92 SE10      29.84R
$$
MNZ006-009>011-018-025>026-031300-
   North Central Minnesota

CITY           SKY/WX    TMP DP  RH WIND       PRES   REMARKS
BAUDETTE       CLOUDY    64  62  93 SE8       29.91R
FLAG ISLAND    CLEAR     66  64  94 SE7       29.88R
INTL FALLS     CLOUDY    62  62 100 SE8       29.95R
6HR MIN TEMP:  57; 6HR MAX TEMP:  64;

WASKISH        CLOUDY    64  63  94 E7        29.91S
BIG FORK       CLOUDY    64  63  94 SE6       29.95S
LONGVILLE      CLOUDY    64  63  94 SE5       29.94R
GRAND RAPIDS     N/A     63  61  94 S6        29.96R VSB 1/2
CRANE LAKE     CLEAR     50  48  93 CALM      29.99R
ORR            CLOUDY    59  57  94 CALM      29.95R VSB 1/4
COOK           FOG       61  61 100 CALM      29.98R VSB 3/4
WALKER         PTSUNNY   65  63  93 SE8       29.92S
$$
MNZ012-019>021-037-031300-
   Northeast Minnesota

CITY           SKY/WX    TMP DP  RH WIND       PRES   REMARKS
DULUTH         FOG       61  60  97 E9        29.98R VSB 1/4
6HR MIN TEMP:  60; 6HR MAX TEMP:  63;

ELY            FOG       55  55 100 CALM      29.99R VSB<1/4
HIBBING        FOG       61  61 100 SE5       29.98R VSB 1/2
EVELETH        CLOUDY    61  59  94 CALM      29.99R FOG
DULUTH HARBOR  FOG       59  57  94 NE7       29.98R VSB 1/2
TWO HARBORS    HAZE      63  57  82 E6        29.97R VSB 1/4
SILVER BAY     CLOUDY    61  61 100 NE3       29.97S FOG
GRAND MARAIS     N/A     55  53  93 CALM      29.98R
G MARAIS ARPRT CLEAR     54  52  94 N6        30.02S
$$
MNZ029>031-032-039>041-046>048-054>057-064-031300-
   West Central Minnesota

CITY           SKY/WX    TMP DP  RH WIND       PRES   REMARKS
FERGUS FALLS   CLOUDY    70  70 100 SE12      29.83S FOG
WHEATON        CLOUDY    68  66  94 SE13      29.83S FOG
MORRIS         FOG       70  70 100 SE13      29.84R VSB 1/4
ALEXANDRIA     FOG       67  67 100 SE15      29.90R VSB 1/2
ELBOW LAKE     CLOUDY    68  68  99 SE9       29.85R FOG
WADENA         MOCLDY    66  64  94 E8        29.89S
GLENWOOD       FOG       66  66 100 E9        29.89S VSB 1/4
APPLETON       FOG       72  68  88 SE9       29.84R VSB 3/4
BENSON         FOG       70  66  88 SE8       29.85S VSB 1/2
ORTONVILLE     CLOUDY    70  68  94 SE9       29.83R VSB 1/2
MADISON        FOG       70  70 100 SE7       29.84R VSB 1
WILLMAR        FOG       70  70 100 E10       29.88S VSB 1/2
$$
MNZ033>034-036-042>043-049>051-058-059-031300-
   Central Minnesota

CITY           SKY/WX    TMP DP  RH WIND       PRES   REMARKS
ST CLOUD       MOCLDY    65  65 100 E7        29.91R FOG
6HR MIN TEMP:  65; 6HR MAX TEMP:  69;

SAUK CENTRE    CLOUDY    67  66  99 E8        29.90R FOG
PAYNESVILLE    FOG       67  67 100 E7        29.90R VSB 1/4
AITKIN         CLOUDY    63  57  82 CALM      29.94R
PINE RIVER     CLOUDY    64  64 100 SE7       29.96S
BRAINERD       CLOUDY    66  65  96 SE5       29.93R
STAPLES        CLOUDY    66  64  94 E5        29.91R
LONG PRAIRIE   CLOUDY    66  64  94 E7        29.91R
LITTLE FALLS   CLOUDY    66  63  88 E6        29.92R
LITCHFIELD     FOG       68  68 100 E7        29.90R VSB 1/4
BUFFALO        CLOUDY    66  64  93 E6        29.91R FOG
MAPLE LAKE     CLOUDY    67  67  97 E6        29.91S FOG
$$
MNZ037-044-045-052-053-031300-
   East Central Minnesota

CITY           SKY/WX    TMP DP  RH WIND       PRES   REMARKS
PRINCETON      CLOUDY    66  64  94 NE6       29.92S FOG
MORA           FOG       63  63 100 E3        29.96R VSB 1
CAMBRIDGE      CLOUDY    66  59  77 CALM      29.91R HAZE
RUSH CITY      FOG       64  62  96 NE5       29.94R VSB 1
MOOSE LAKE     FOG       59  59 100 E3        29.96R VSB 3/4
HINCKLEY       FOG       63  63 100 E5        29.95S VSB 1/4
CLOQUET        FOG       61  59  94 E6        29.98R VSB 1/4
MCGREGOR       CLOUDY    61  61 100 E9        29.96R VSB 3/4
$$
MNZ071>073-080-081-089-090-097-098-031300-
   Southwest Minnesota

CITY           SKY/WX    TMP DP  RH WIND       PRES   REMARKS
MONTEVIDEO     FOG       70  70 100 S8        29.87R VSB 1/2
GRANITE FALLS  FOG       69  69 100 E5        29.87R VSB 1/2
CANBY          FOG       67  66  96 SE6       29.85R VSB<1/4
MARSHALL       MOCLDY    66  63  88 SE8       29.86R
REDWOOD FALLS  CLOUDY    69  68  96 E6        29.86R FOG
OLIVIA         FOG       68  64  88 E8        29.86S VSB 1/2
PIPESTONE      CLEAR     68  66  94 SE5       29.86R FOG
WINDOM         CLEAR     66  66 100 CALM      29.87S FOG
WORTHINGTON    CLEAR     66  63  88 S5        29.87S
JACKSON        CLEAR     68  66  94 S5        29.88S FOG
TRACY          CLEAR     69  68  96 CALM      29.86R FOG
SLAYTON        FOG       65  65 100 CALM      29.88S VSB 1/4
$$
MNZ065>067-074>077-082>085-091>093-031300-
   South Central Minnesota

CITY           SKY/WX    TMP DP  RH WIND       PRES   REMARKS
MANKATO        CLEAR     68  66  94 SE7       29.89R
NEW ULM        CLEAR     68  68 100 E5        29.88R FOG
ST JAMES       CLEAR     68  66  94 E5        29.88S FOG
FAIRMONT       CLEAR     66  61  82 SE3       29.88R
GLENCOE        FOG       69  69 100 E3        29.89R VSB 1/4
FARIBAULT      FOG       64  63  94 CALM      29.91S VSB 1/2
OWATONNA       CLEAR     66  64  94 SE6       29.91R FOG
WASECA         CLEAR     64  63  94 E5        29.91S FOG
ALBERT LEA     CLEAR     68  66  94 SE5       29.92R FOG
$$
MNZ078>079-086>088-094>096-031300-
   Southeast Minnesota

CITY           SKY/WX    TMP DP  RH WIND       PRES   REMARKS
ROCHESTER      CLEAR     66  65  96 S6        29.93S FOG
6HR MIN TEMP:  64; 6HR MAX TEMP:  69;

RED WING       CLOUDY    70  66  88 CALM      29.91R
STANTON        FOG       66  65  94 CALM      29.90S VSB<1/4
DODGE CENTER   CLEAR     64  64 100 SE3       29.93R FOG
WINONA         FOG       70  68  94 CALM      29.91S VSB 1/4
AUSTIN           N/A     66  64  94 SE3       29.92S FOG
PRESTON        CLEAR     66  65  94 SW6       29.94S FOG
$$
ABBREVIATIONS USED IN REMARKS
   TC - TEMPERATURES IN CELSIUS
  WCI - WIND CHILL INDEX
   HX - HEAT INDEX
  VSB - VISIBILITY
$$



USA.gov is the U.S. government's official web portal to all federal, state and local government web resources and services.